Terminal Aerodrome Forecast
Issued by NWS

Current Version | Previous Version | Graphics & Text | Print | Product List | Glossary On
Versions: 1 2 3 4 5 6 7 8 9 10 11 12 13 14 15 16 17 18 19
000
FTUS41 KPBZ 232300
TAFMGW
TAF
KMGW 232320Z 2400/2424 10006KT P6SM OVC050
     FM240500 12008KT 3SM -RA OVC008
     FM242200 19012KT P6SM OVC100=

USA.gov is the U.S. government's official web portal to all federal, state and local government web resources and services.